Regional Weather Roundup
Issued by NWS Albany, NY

Home | Current Version | Previous Version | Text Only | Print | Product List | Glossary On
Versions: 1 2 3 4 5 6 7 8 9 10 11 12 13 14 15 16 17 18 19 20 21 22 23 24 25 26 27 28 29 30 31 32 33 34 35 36 37 38 39 40 41 42 43 44 45 46 47 48 49
000
ASUS41 KALY 301510
RWRALY

NEW YORK STATE HOURLY WEATHER ROUNDUP
NATIONAL WEATHER SERVICE ALBANY NY
1100 AM EDT THU JUL 30 2015

NOTE: "FAIR" INDICATES FEW OR NO CLOUDS BELOW 12,000 FEET WITH NO
SIGNIFICANT WEATHER AND/OR NO OBSTRUCTIONS TO VISIBILITY.

NYZ032-033-038>043-046>054-057>066-NYZ062>081-301600-
EAST


CITY           SKY/WX    TMP DP  RH WIND       PRES   REMARKS
ALBANY         PTSUNNY   84  71  65 S13       29.82F
GLENS FALLS    PTSUNNY   80  71  74 S9        29.80F
POUGHKEEPSIE   CLOUDY    84  72  67 S9        29.85F
NEWBURGH       CLOUDY    82  75  78 W6        29.88F
MONTGOMERY     CLOUDY    83  74  74 SW10      29.87S
WHITE PLAINS   PTSUNNY   80  73  79 VRB7      29.89F
ISLIP          LGT RAIN  77  74  90 SW16G22   29.89F
NEW YORK CITY  CLOUDY    81  72  74 S13       29.88F
CENTRAL PARK   CLOUDY    81  71  71 SW8       29.92S
$$

NYZ005>009-017-018-044>046-055-056-301600-
CENTRAL


CITY           SKY/WX    TMP DP  RH WIND       PRES   REMARKS
FULTON         CLOUDY    77  70  79 W13       29.83R
SYRACUSE       CLOUDY    74  72  93 SW8       29.82S
ROME           HVY RAIN  73  72  96 W9        29.84R VSB 3/4
ELMIRA         PTSUNNY   80  73  79 W12       29.86S
BINGHAMTON     CLOUDY    73  71  93 SW8       29.90R FOG
MONTICELLO     CLOUDY    77  72  83 SW5       29.92F
$$

NYZ026>034-041>043-301600-
NORTH


CITY           SKY/WX    TMP DP  RH WIND       PRES   REMARKS
WATERTOWN      PTSUNNY   75  69  81 SW8       29.80R
FORT DRUM      NOT AVBL
MASSENA        CLOUDY    74  71  91 SW9       29.75F FOG
SARANAC LAKE   CLOUDY    74  68  81 SW7       29.81F
PLATTSBURGH    CLOUDY    76  70  82 S6        29.74F
$$

NYZ001>004-010>016-019>021-301600-
WEST


CITY           SKY/WX    TMP DP  RH WIND       PRES   REMARKS
NIAGARA FALLS  MOSUNNY   81  59  47 W13       29.86R
BUFFALO        MOSUNNY   78  63  59 SW20      29.87S
DUNKIRK        SUNNY     77  65  66 SW13      29.91R
JAMESTOWN      MOSUNNY   73  61  64 W8        29.97S
WELLSVILLE     MOSUNNY   77  62  59 W12       29.98R
ROCHESTER      MOSUNNY   81  68  64 W12       29.85S
PENN YAN       PTSUNNY   79  69  71 W10       29.88R
$$

             KEY
       WCI = WIND CHILL INDEX
       VSB = VISIBILITY
       HX  = HEAT INDEX
$$


USA.gov is the U.S. government's official web portal to all federal, state and local government web resources and services.